GMT,Max TemperatureF,Mean TemperatureF,Min TemperatureF,Max Dew PointF,MeanDew PointF,Min DewpointF,Max Humidity, Mean Humidity, Min Humidity, Max Sea Level PressureIn, Mean Sea Level PressureIn, Min Sea Level PressureIn, Max VisibilityMiles, Mean VisibilityMiles, Min VisibilityMiles, Max Wind SpeedMPH, Mean Wind SpeedMPH, Max Gust SpeedMPH,PrecipitationIn, CloudCover, Events, WindDirDegrees
2012-12-1,41,38,36,39,37,35,100,92,86,30.14,30.09,30.04,16,7,6,7,4,,0.00,6,Rain,305
2012-12-2,44,38,35,45,38,34,100,99,85,30.09,29.87,29.71,2,0,0,12,8,,0.35,7,Rain,143
2012-12-3,41,40,36,44,36,34,100,92,81,29.78,29.72,29.68,19,7,6,18,10,32,0.12,3,Rain,253
2012-12-4,41,37,33,39,37,33,100,94,87,29.73,29.63,29.59,19,7,5,16,10,,0.08,5,Rain,266
2012-12-5,40,36,33,36,33,30,93,88,76,30.06,29.99,29.84,17,7,6,13,8,,0.00,3,Rain,292
2012-12-6,42,37,32,43,39,32,100,94,87,30.01,29.63,29.50,16,6,4,25,15,36,0.51,7,Rain,252
2012-12-7,44,40,36,37,36,32,93,80,66,30.19,29.98,29.66,19,7,6,23,16,37,0.03,2,Rain,330
2012-12-8,44,38,33,45,41,34,100,96,84,30.34,30.29,30.27,16,5,0,18,9,,0.01,7,Fog-Rain,241
2012-12-9,43,42,40,43,42,35,100,96,76,30.25,30.19,30.18,19,6,0,12,9,,0.02,6,Fog-Rain,309
2012-12-10,36,36,33,34,32,31,93,87,74,30.40,30.32,30.27,19,7,6,10,7,,0.00,5,,88
2012-12-11,34,31,29,32,30,28,100,92,81,30.43,30.30,30.21,19,8,6,14,11,,0.00,5,,128
2012-12-12,37,34,32,38,35,31,100,97,92,30.15,29.86,29.77,19,6,0,13,11,,0.04,7,Fog-Rain,128
2012-12-13,36,36,32,40,33,32,100,93,83,29.70,29.46,29.30,19,7,6,17,13,26,0.00,5,,128
2012-12-14,42,38,34,41,41,39,100,99,93,28.82,28.72,28.68,9,4,0,22,11,,0.24,7,Fog-Rain,113
2012-12-15,45,40,37,43,41,38,100,97,87,29.12,28.98,28.84,16,6,0,13,7,,0.01,2,Fog,197
2012-12-16,43,41,39,43,41,39,100,97,93,29.23,29.16,29.12,14,7,5,16,11,,0.16,6,Rain,161
2012-12-17,45,43,41,45,42,41,100,96,93,29.68,29.46,29.25,16,6,0,14,10,,0.04,5,Fog-Rain,267
2012-12-18,39,37,35,39,38,36,100,100,100,29.99,29.93,29.89,3,0,0,14,6,,0.01,6,Fog,134
2012-12-19,47,42,37,47,45,38,100,99,92,29.75,29.62,29.53,12,4,0,25,13,37,0.08,7,Fog-Rain,148
2012-12-20,44,42,40,45,43,41,100,100,93,29.64,29.47,29.44,4,1,0,9,5,,0.00,7,Fog-Rain,122
2012-12-21,44,40,35,45,43,38,100,99,93,29.77,29.71,29.61,1,0,0,14,7,,0.01,7,Fog-Rain,159
2012-12-22,52,46,41,52,51,43,100,100,96,29.51,29.23,29.12,6,2,0,20,15,25,0.16,7,Fog-Rain,196
2012-12-23,46,44,41,47,41,39,100,92,81,29.51,29.42,29.02,19,7,6,29,16,,0.04,3,Rain,225
2012-12-24,44,41,38,43,42,39,100,98,93,29.48,29.24,29.15,19,7,0,13,10,,0.08,5,Fog-Rain,183
2012-12-25,42,39,37,39,38,36,100,94,84,29.47,29.29,29.16,,,,11,5,,0.04,,,-1
2012-12-26,43,39,36,43,39,36,100,96,84,29.55,29.33,29.24,11,4,0,32,12,47,0.35,6,Fog-Rain-Hail,189
2012-12-27,43,40,37,39,37,34,93,87,76,29.87,29.70,29.42,19,7,6,13,10,,0.00,4,Rain,245
2012-12-28,50,44,38,50,49,40,100,98,88,29.73,29.40,29.15,6,3,1,32,23,50,0.28,6,Rain,194
2012-12-29,42,38,33,41,36,33,100,91,73,29.32,29.24,29.15,19,7,4,27,14,32,0.20,4,Rain,216
2012-12-30,48,40,32,48,41,32,100,94,84,29.58,29.49,29.41,6,5,2,23,18,34,0.51,7,Rain,231
2012-12-31,46,44,37,47,39,34,100,90,81,29.45,29.31,29.18,16,7,6,28,17,41,0.03,5,Rain,263